Station Historical Data
Daily Summary for June 18, 2017 Units:  Metric    English   Both
« Previous Day
Next Day »
Daily Weekly Monthly Yearly Custom
  High: Low: Average:
Temperature: 30.8 °C 21.1 °C 25.1 °C
Dew Point: 21.9 °C 18.9 °C 20.3 °C
Humidity: 90% 58% 76%
Wind Speed: 24.1km/h 0km/h 7.9km/h
Wind Gust: 38.6km/h - -
Wind- - SSW
Pressure: 1005.3 hPa 1001.2 hPa -
Precipitation: 0 mm    
Historical Graphs
 
 
Tabular Data for June 18, 2017
Time Temperature Dew Point Pressure Wind Wind Speed Wind Gust Humidity Rainfall Rate (Hourly)
00:04 25.8 °C 19.2 °C 1005.3 hPa SSE 3.2 km/h 14.5 km/h 67% 0 mm
00:09 25.7 °C 19.4 °C 1005.3 hPa South 4.8 km/h 14.5 km/h 68% 0 mm
00:14 25.7 °C 19.6 °C 1005.3 hPa South 4.8 km/h 11.3 km/h 69% 0 mm
00:19 25.8 °C 19.7 °C 1005.3 hPa South 4.8 km/h 11.3 km/h 69% 0 mm
00:24 25.9 °C 19.8 °C 1005.3 hPa SSW 4.8 km/h 12.9 km/h 69% 0 mm
00:29 26 °C 19.9 °C 1005.3 hPa SSW 6.4 km/h 14.5 km/h 69% 0 mm
00:34 26 °C 19.9 °C 1005.3 hPa SSW 3.2 km/h 14.5 km/h 69% 0 mm
00:39 26.1 °C 19.9 °C 1005 hPa South 6.4 km/h 14.5 km/h 69% 0 mm
00:44 26.1 °C 19.9 °C 1005 hPa South 6.4 km/h 17.7 km/h 69% 0 mm
00:49 26.1 °C 20.2 °C 1005.3 hPa South 6.4 km/h 17.7 km/h 70% 0 mm
00:54 26.1 °C 20.2 °C 1005 hPa South 6.4 km/h 16.1 km/h 70% 0 mm
00:59 26.1 °C 20.2 °C 1005 hPa South 6.4 km/h 16.1 km/h 70% 0 mm
01:05 26.2 °C 20.3 °C 1005 hPa South 6.4 km/h 14.5 km/h 70% 0 mm
01:10 26.1 °C 20.2 °C 1005 hPa SW 3.2 km/h 9.7 km/h 70% 0 mm
01:15 26.1 °C 20.2 °C 1005 hPa SSW 6.4 km/h 19.3 km/h 70% 0 mm
01:20 26.1 °C 20.2 °C 1005 hPa SSW 11.3 km/h 14.5 km/h 70% 0 mm
01:25 26 °C 20.1 °C 1005 hPa South 8 km/h 16.1 km/h 70% 0 mm
01:30 26 °C 20.3 °C 1005 hPa South 9.7 km/h 16.1 km/h 71% 0 mm
01:35 25.9 °C 20.2 °C 1005 hPa SSE 6.4 km/h 9.7 km/h 71% 0 mm
01:40 25.7 °C 20.1 °C 1004.6 hPa WSW 3.2 km/h 16.1 km/h 71% 0 mm
01:45 25.7 °C 20.3 °C 1004.6 hPa SSW 6.4 km/h 16.1 km/h 72% 0 mm
01:50 25.7 °C 20.2 °C 1004.6 hPa SSW 6.4 km/h 16.1 km/h 72% 0 mm
01:55 25.6 °C 20.1 °C 1004.6 hPa SSW 4.8 km/h 14.5 km/h 72% 0 mm
02:00 25.4 °C 20.2 °C 1004.6 hPa SSW 4.8 km/h 12.9 km/h 73% 0 mm
02:05 25.4 °C 20.2 °C 1004.3 hPa SSW 4.8 km/h 12.9 km/h 73% 0 mm
02:10 25.4 °C 20.2 °C 1004.3 hPa South 8 km/h 14.5 km/h 73% 0 mm
02:15 25.4 °C 20.2 °C 1004.3 hPa SSW 6.4 km/h 19.3 km/h 73% 0 mm
02:20 25.4 °C 20.2 °C 1004.3 hPa SW 4.8 km/h 12.9 km/h 73% 0 mm
02:25 25.3 °C 20.2 °C 1004.3 hPa South 3.2 km/h 11.3 km/h 73% 0 mm
02:30 25.3 °C 20.1 °C 1003.9 hPa SSW 4.8 km/h 14.5 km/h 73% 0 mm
02:35 25.2 °C 20.1 °C 1003.9 hPa South 4.8 km/h 16.1 km/h 73% 0 mm
02:40 25.2 °C 20 °C 1003.9 hPa South 8 km/h 14.5 km/h 73% 0 mm
02:45 25.1 °C 20.1 °C 1003.9 hPa SSW 4.8 km/h 14.5 km/h 74% 0 mm
02:50 25 °C 20.1 °C 1003.9 hPa SSW 4.8 km/h 16.1 km/h 74% 0 mm
02:55 24.9 °C 20 °C 1003.9 hPa SSW 4.8 km/h 16.1 km/h 74% 0 mm
03:00 24.9 °C 19.9 °C 1003.9 hPa SSW 6.4 km/h 14.5 km/h 74% 0 mm
03:05 24.8 °C 20.1 °C 1003.9 hPa SSW 4.8 km/h 12.9 km/h 75% 0 mm
03:10 24.7 °C 19.9 °C 1003.9 hPa SSW 1.6 km/h 9.7 km/h 75% 0 mm
03:15 24.7 °C 19.9 °C 1003.9 hPa SSW 4.8 km/h 9.7 km/h 75% 0 mm
03:20 24.6 °C 19.9 °C 1003.6 hPa SSW 3.2 km/h 9.7 km/h 75% 0 mm
03:25 24.5 °C 19.8 °C 1003.9 hPa South 4.8 km/h 9.7 km/h 75% 0 mm
03:30 24.4 °C 19.7 °C 1003.9 hPa SE 6.4 km/h 11.3 km/h 75% 0 mm
03:35 24.4 °C 19.9 °C 1003.9 hPa South 4.8 km/h 11.3 km/h 76% 0 mm
03:40 24.4 °C 19.7 °C 1003.9 hPa SSW 6.4 km/h 11.3 km/h 75% 0 mm
03:45 24.4 °C 19.7 °C 1003.9 hPa SSW 4.8 km/h 12.9 km/h 75% 0 mm
03:50 24.4 °C 19.7 °C 1003.9 hPa SSW 4.8 km/h 12.9 km/h 75% 0 mm
03:55 24.4 °C 19.9 °C 1003.9 hPa South 4.8 km/h 11.3 km/h 76% 0 mm
04:00 24.4 °C 19.7 °C 1003.9 hPa SSW 4.8 km/h 12.9 km/h 75% 0 mm
04:05 24.4 °C 19.9 °C 1003.9 hPa SSW 6.4 km/h 12.9 km/h 76% 0 mm
04:10 24.5 °C 20 °C 1003.9 hPa Calm   12.9 km/h 76% 0 mm
04:15 24.5 °C 20 °C 1003.9 hPa South 4.8 km/h 14.5 km/h 76% 0 mm
04:20 24.4 °C 19.9 °C 1003.9 hPa South 6.4 km/h 14.5 km/h 76% 0 mm
04:24 24.4 °C 19.9 °C 1003.9 hPa SSW 1.6 km/h 14.5 km/h 76% 0 mm
04:30 24.3 °C 19.8 °C 1003.6 hPa SSW 8 km/h 12.9 km/h 76% 0 mm
04:35 24.3 °C 19.8 °C 1003.6 hPa SSW 6.4 km/h 16.1 km/h 76% 0 mm
04:40 24.3 °C 19.8 °C 1003.3 hPa SW 9.7 km/h 20.9 km/h 76% 0 mm
04:45 24.3 °C 19.8 °C 1003.3 hPa South 8 km/h 20.9 km/h 76% 0 mm
04:50 24.3 °C 19.8 °C 1003.6 hPa South 6.4 km/h 16.1 km/h 76% 0 mm
04:55 24.3 °C 19.8 °C 1003.6 hPa South 8 km/h 22.5 km/h 76% 0 mm
05:00 24.3 °C 19.8 °C 1003.6 hPa South 6.4 km/h 11.3 km/h 76% 0 mm
05:05 24.3 °C 19.8 °C 1003.6 hPa South 8 km/h 9.7 km/h 76% 0 mm
05:10 24.3 °C 19.8 °C 1003.6 hPa SW 4.8 km/h 20.9 km/h 76% 0 mm
05:15 24.4 °C 19.9 °C 1003.6 hPa South 8 km/h 20.9 km/h 76% 0 mm
05:20 24.3 °C 19.8 °C 1003.6 hPa SSW 6.4 km/h 16.1 km/h 76% 0 mm
05:25 24.3 °C 19.8 °C 1003.6 hPa SSW 6.4 km/h 16.1 km/h 76% 0 mm
05:30 24.3 °C 19.8 °C 1003.6 hPa SSW 6.4 km/h 16.1 km/h 76% 0 mm
05:35 24.4 °C 19.9 °C 1003.6 hPa SSW 6.4 km/h 16.1 km/h 76% 0 mm
05:40 24.5 °C 19.8 °C 1003.6 hPa SSW 6.4 km/h 16.1 km/h 75% 0 mm
05:45 24.5 °C 19.8 °C 1003.6 hPa SSW 6.4 km/h 14.5 km/h 75% 0 mm
05:50 24.6 °C 19.8 °C 1003.6 hPa SW 9.7 km/h 19.3 km/h 75% 0 mm
05:55 24.5 °C 19.8 °C 1003.6 hPa SSW 11.3 km/h 17.7 km/h 75% 0 mm
06:00 24.5 °C 19.8 °C 1003.6 hPa SSW 1.6 km/h 19.3 km/h 75% 0 mm
06:05 24.5 °C 20 °C 1003.6 hPa SW 9.7 km/h 17.7 km/h 76% 0 mm
06:10 24.6 °C 20.1 °C 1003.6 hPa South 4.8 km/h 12.9 km/h 76% 0 mm
06:15 24.6 °C 19.8 °C 1003.6 hPa South 6.4 km/h 14.5 km/h 75% 0 mm
06:20 24.6 °C 19.8 °C 1003.6 hPa South 6.4 km/h 14.5 km/h 75% 0 mm
06:25 24.6 °C 19.8 °C 1003.6 hPa South 6.4 km/h 14.5 km/h 75% 0 mm
06:30 24.7 °C 19.9 °C 1003.6 hPa South 6.4 km/h 14.5 km/h 75% 0 mm
06:35 24.8 °C 20.1 °C 1003.6 hPa South 6.4 km/h 20.9 km/h 75% 0 mm
06:40 25 °C 20.1 °C 1003.6 hPa SSE 11.3 km/h 17.7 km/h 74% 0 mm
06:44 25.2 °C 20.2 °C 1003.6 hPa South 8 km/h 17.7 km/h 74% 0 mm
06:50 25.2 °C 20.3 °C 1003.3 hPa South 8 km/h 17.7 km/h 74% 0 mm
06:55 25.3 °C 20.4 °C 1003.3 hPa South 6.4 km/h 16.1 km/h 74% 0 mm
07:00 25.5 °C 20.3 °C 1003.3 hPa South 3.2 km/h 12.9 km/h 73% 0 mm
07:05 25.7 °C 20.5 °C 1003.6 hPa South 11.3 km/h 19.3 km/h 73% 0 mm
07:10 25.7 °C 20.5 °C 1003.6 hPa SSE 9.7 km/h 17.7 km/h 73% 0 mm
07:14 25.6 °C 20.4 °C 1003.6 hPa South 8 km/h 17.7 km/h 73% 0 mm
07:20 25.6 °C 20.3 °C 1003.3 hPa SSW 8 km/h 17.7 km/h 73% 0 mm
07:25 25.4 °C 20.4 °C 1003.3 hPa SSW 6.4 km/h 16.1 km/h 74% 0 mm
07:30 25.5 °C 20.5 °C 1003.3 hPa SSE 9.7 km/h 20.9 km/h 74% 0 mm
07:35 25.7 °C 20.5 °C 1003.3 hPa SSW 4.8 km/h 14.5 km/h 73% 0 mm
07:40 26.1 °C 20.6 °C 1003.3 hPa South 8 km/h 17.7 km/h 72% 0 mm
07:44 26.3 °C 20.6 °C 1003.3 hPa SSW 8 km/h 20.9 km/h 71% 0 mm
07:49 26.7 °C 20.7 °C 1003.3 hPa SSW 9.7 km/h 25.7 km/h 70% 0 mm
07:55 26.9 °C 21 °C 1002.9 hPa SSW 11.3 km/h 27.4 km/h 70% 0 mm
08:00 27.2 °C 21.1 °C 1002.9 hPa SSW 9.7 km/h 30.6 km/h 69% 0 mm
08:04 27.3 °C 21.1 °C 1002.9 hPa SE 16.1 km/h 20.9 km/h 69% 0 mm
08:10 27.7 °C 21.2 °C 1002.9 hPa SW 8 km/h 25.7 km/h 68% 0 mm
08:15 27.7 °C 21.2 °C 1002.9 hPa SSW 11.3 km/h 25.7 km/h 68% 0 mm
08:20 27.6 °C 21.1 °C 1002.9 hPa South 16.1 km/h 22.5 km/h 68% 0 mm
08:25 27.5 °C 21.3 °C 1003.3 hPa South 9.7 km/h 22.5 km/h 69% 0 mm
08:30 27.5 °C 21.1 °C 1003.3 hPa SSW 9.7 km/h 22.5 km/h 68% 0 mm
08:35 27.4 °C 21.2 °C 1003.3 hPa SSW 9.7 km/h 24.1 km/h 69% 0 mm
08:40 27.7 °C 21.2 °C 1003.3 hPa South 19.3 km/h 29 km/h 68% 0 mm
08:44 27.9 °C 21.5 °C 1003.3 hPa SSW 11.3 km/h 29 km/h 68% 0 mm
08:50 27.9 °C 21.2 °C 1003.6 hPa SSW 9.7 km/h 20.9 km/h 67% 0 mm
08:55 27.5 °C 21.1 °C 1003.6 hPa SSW 11.3 km/h 20.9 km/h 68% 0 mm
09:00 27.3 °C 20.9 °C 1003.3 hPa SSW 12.9 km/h 27.4 km/h 68% 0 mm
09:05 27.2 °C 20.8 °C 1003.3 hPa SSW 12.9 km/h 27.4 km/h 68% 0 mm
09:10 27.2 °C 20.8 °C 1003.3 hPa SSW 12.9 km/h 22.5 km/h 68% 0 mm
09:19 27.7 °C 21.2 °C 1003.3 hPa South 6.4 km/h 22.5 km/h 68% 0 mm
09:24 27.6 °C 20.9 °C 1002.9 hPa SSW 12.9 km/h 27.4 km/h 67% 0 mm
09:30 27.3 °C 21.1 °C 1002.9 hPa SSE 6.4 km/h 25.7 km/h 69% 0 mm
09:34 27.1 °C 20.9 °C 1002.9 hPa SW 4.8 km/h 25.7 km/h 69% 0 mm
09:40 27.2 °C 21 °C 1002.9 hPa SSW 8 km/h 20.9 km/h 69% 0 mm
09:45 27.3 °C 20.9 °C 1002.9 hPa SSW 9.7 km/h 24.1 km/h 68% 0 mm
09:50 27.4 °C 20.9 °C 1002.9 hPa SSW 11.3 km/h 29 km/h 68% 0 mm
09:55 27.4 °C 21 °C 1002.9 hPa SSW 9.7 km/h 29 km/h 68% 0 mm
10:00 27.5 °C 20.8 °C 1002.9 hPa SSW 9.7 km/h 20.9 km/h 67% 0 mm
10:05 27.6 °C 21.1 °C 1002.9 hPa SW 6.4 km/h 19.3 km/h 68% 0 mm
10:09 27.6 °C 20.9 °C 1002.9 hPa SSW 9.7 km/h 29 km/h 67% 0 mm
10:14 27.9 °C 21.2 °C 1002.9 hPa SW 11.3 km/h 29 km/h 67% 0 mm
10:19 28.5 °C 21.3 °C 1002.6 hPa SW 9.7 km/h 29 km/h 65% 0 mm
10:25 28.8 °C 21.3 °C 1002.6 hPa SSW 22.5 km/h 32.2 km/h 64% 0 mm
10:29 29.1 °C 21.6 °C 1002.9 hPa South 11.3 km/h 27.4 km/h 64% 0 mm
10:35 29.4 °C 21.3 °C 1002.9 hPa SW 14.5 km/h 27.4 km/h 62% 0 mm
10:39 29.2 °C 21.7 °C 1002.9 hPa SW 12.9 km/h 29 km/h 64% 0 mm
10:44 29.5 °C 21.2 °C 1002.9 hPa SW 11.3 km/h 29 km/h 61% 0 mm
10:49 29.5 °C 21.2 °C 1002.6 hPa SW 11.3 km/h 29 km/h 61% 0 mm
10:54 29.3 °C 21.2 °C 1002.6 hPa SW 16.1 km/h 22.5 km/h 62% 0 mm
11:00 29.1 °C 21.1 °C 1002.6 hPa WSW 11.3 km/h 27.4 km/h 62% 0 mm
11:05 28.8 °C 20.8 °C 1002.6 hPa SW 22.5 km/h 27.4 km/h 62% 0 mm
11:10 28.8 °C 21.1 °C 1002.6 hPa WSW 9.7 km/h 24.1 km/h 63% 0 mm
11:15 28.9 °C 21.2 °C 1002.6 hPa SW 12.9 km/h 24.1 km/h 63% 0 mm
11:19 29.1 °C 21.1 °C 1002.3 hPa SW 12.9 km/h 24.1 km/h 62% 0 mm
11:24 29.3 °C 21.5 °C 1002.3 hPa SW 8 km/h 25.7 km/h 63% 0 mm
11:29 29.8 °C 21.2 °C 1002.3 hPa WSW 16.1 km/h 24.1 km/h 60% 0 mm
11:34 30.3 °C 21.7 °C 1002.3 hPa SSW 11.3 km/h 22.5 km/h 60% 0 mm
11:39 30.6 °C 21.9 °C 1002.3 hPa SW 11.3 km/h 22.5 km/h 60% 0 mm
11:45 30.6 °C 21.6 °C 1002.3 hPa SW 11.3 km/h 29 km/h 59% 0 mm
11:49 30.7 °C 21.4 °C 1002.3 hPa WSW 16.1 km/h 20.9 km/h 58% 0 mm
11:55 30.2 °C 21.3 °C 1002.3 hPa SW 12.9 km/h 29 km/h 59% 0 mm
12:00 29.9 °C 21.6 °C 1002.3 hPa South 16.1 km/h 20.9 km/h 61% 0 mm
12:04 30.2 °C 21.6 °C 1002.3 hPa West 8 km/h 22.5 km/h 60% 0 mm
12:09 30.2 °C 21.3 °C 1002.3 hPa SW 12.9 km/h 30.6 km/h 59% 0 mm
12:14 30.3 °C 21.4 °C 1002.3 hPa WSW 14.5 km/h 30.6 km/h 59% 0 mm
12:19 30.8 °C 21.8 °C 1002.3 hPa WSW 14.5 km/h 30.6 km/h 59% 0 mm
12:25 30.6 °C 21.7 °C 1002.3 hPa WSW 12.9 km/h 29 km/h 59% 0 mm
12:30 29.8 °C 20.9 °C 1002.3 hPa WSW 14.5 km/h 30.6 km/h 59% 0 mm
12:34 30.1 °C 21.2 °C 1002.3 hPa WSW 11.3 km/h 35.4 km/h 59% 0 mm
12:40 30.3 °C 21.2 °C 1002.3 hPa WSW 24.1 km/h 33.8 km/h 58% 0 mm
12:44 29.7 °C 20.6 °C 1002.3 hPa SW 19.3 km/h 29 km/h 58% 0 mm
12:50 29.8 °C 20.6 °C 1002.3 hPa SSW 3.2 km/h 27.4 km/h 58% 0 mm
12:54 29.2 °C 20.6 °C 1002.3 hPa WNW 12.9 km/h 24.1 km/h 60% 0 mm
12:59 28.8 °C 20.5 °C 1002.3 hPa South 8 km/h 20.9 km/h 61% 0 mm
13:04 28.8 °C 20.6 °C 1002.3 hPa WSW 11.3 km/h 20.9 km/h 61% 0 mm
13:09 29.2 °C 20.6 °C 1002.3 hPa WSW 11.3 km/h 20.9 km/h 60% 0 mm
13:15 29.3 °C 20.2 °C 1002.3 hPa WSW 11.3 km/h 20.9 km/h 58% 0 mm
13:20 29.1 °C 19.9 °C 1002.3 hPa WSW 11.3 km/h 20.9 km/h 58% 0 mm
13:25 28.7 °C 19.9 °C 1001.9 hPa WSW 12.9 km/h 22.5 km/h 59% 0 mm
13:30 28.6 °C 20.1 °C 1001.9 hPa WSW 9.7 km/h 22.5 km/h 60% 0 mm
13:34 28.6 °C 19.8 °C 1001.9 hPa WSW 8 km/h 22.5 km/h 59% 0 mm
13:39 28.7 °C 19.9 °C 1001.9 hPa SW 11.3 km/h 19.3 km/h 59% 0 mm
13:44 28.7 °C 19.9 °C 1002.3 hPa West 8 km/h 22.5 km/h 59% 0 mm
13:49 28.3 °C 19.6 °C 1001.9 hPa NW 3.2 km/h 20.9 km/h 59% 0 mm
13:54 28.2 °C 19.7 °C 1001.9 hPa WSW 9.7 km/h 14.5 km/h 60% 0 mm
13:59 28 °C 20.1 °C 1001.9 hPa WSW 11.3 km/h 14.5 km/h 62% 0 mm
14:04 28.2 °C 20.2 °C 1001.9 hPa SW 8 km/h 17.7 km/h 62% 0 mm
14:09 28.6 °C 19.8 °C 1001.6 hPa SSW 8 km/h 19.3 km/h 59% 0 mm
14:14 28 °C 20.1 °C 1001.9 hPa SW 8 km/h 19.3 km/h 62% 0 mm
14:20 27.2 °C 20.3 °C 1002.3 hPa SW 14.5 km/h 38.6 km/h 66% 0 mm
14:25 24.7 °C 20.2 °C 1002.3 hPa West 12.9 km/h 27.4 km/h 76% 0.76 mm
14:29 23.4 °C 20 °C 1001.9 hPa WSW 12.9 km/h 27.4 km/h 81% 0.76 mm
14:34 23.4 °C 20.6 °C 1001.6 hPa WSW 8 km/h 19.3 km/h 84% 1.02 mm
14:39 23.8 °C 20.9 °C 1001.6 hPa WSW 6.4 km/h 14.5 km/h 84% 1.02 mm
14:44 24.1 °C 21.4 °C 1001.2 hPa SW 4.8 km/h 8 km/h 85% 1.02 mm
14:49 24.6 °C 21.6 °C 1001.2 hPa South 3.2 km/h 6.4 km/h 83% 1.02 mm
14:54 25.2 °C 21.9 °C 1001.2 hPa South 1.6 km/h 8 km/h 82% 1.02 mm
14:59 25.4 °C 21.9 °C 1001.2 hPa South 3.2 km/h 9.7 km/h 81% 1.02 mm
15:04 25.3 °C 21.4 °C 1001.6 hPa South 6.4 km/h 9.7 km/h 79% 1.02 mm
15:09 25.1 °C 21.2 °C 1001.6 hPa South 6.4 km/h 12.9 km/h 79% 1.02 mm
15:14 24.8 °C 20.9 °C 1002.3 hPa South 9.7 km/h 17.7 km/h 79% 1.02 mm
15:19 24.5 °C 20.8 °C 1001.9 hPa SSE 6.4 km/h 19.3 km/h 80% 1.02 mm
15:25 24.3 °C 21 °C 1001.9 hPa SSW 9.7 km/h 14.5 km/h 82% 0.25 mm
15:29 24.2 °C 21.3 °C 1001.6 hPa SSW 6.4 km/h 19.3 km/h 84% 0.25 mm
15:34 24.1 °C 21.2 °C 1001.6 hPa SSW 6.4 km/h 19.3 km/h 84% 0 mm
15:39 24 °C 21.1 °C 1001.6 hPa SW 4.8 km/h 9.7 km/h 84% 0 mm
15:44 24 °C 21.1 °C 1001.6 hPa SSW 3.2 km/h 11.3 km/h 84% 0 mm
15:49 24.1 °C 21.4 °C 1001.9 hPa SSW 6.4 km/h 6.4 km/h 85% 0.25 mm
15:54 23.9 °C 21.2 °C 1002.6 hPa WSW 6.4 km/h 12.9 km/h 85% 0.76 mm
15:59 23.7 °C 21 °C 1002.6 hPa WSW 8 km/h 20.9 km/h 85% 1.52 mm
16:04 23.3 °C 20.8 °C 1001.9 hPa SSW 3.2 km/h 11.3 km/h 86% 5.08 mm
16:09 23 °C 20.7 °C 1001.9 hPa WSW 6.4 km/h 9.7 km/h 87% 5.59 mm
16:14 22.8 °C 20.6 °C 1002.3 hPa SSW 6.4 km/h 9.7 km/h 87% 5.59 mm
16:19 22.7 °C 20.6 °C 1002.3 hPa SW 3.2 km/h 11.3 km/h 88% 5.84 mm
16:24 22.7 °C 20.6 °C 1001.9 hPa SW 3.2 km/h 8 km/h 88% 6.1 mm
16:29 22.6 °C 20.5 °C 1002.3 hPa SW 4.8 km/h 11.3 km/h 88% 6.35 mm
16:34 22.6 °C 20.4 °C 1002.3 hPa SW 4.8 km/h 14.5 km/h 88% 6.6 mm
16:39 22.4 °C 20.6 °C 1002.3 hPa SW 4.8 km/h 14.5 km/h 89% 6.6 mm
16:45 22.3 °C 20.4 °C 1001.9 hPa SW 3.2 km/h 9.7 km/h 89% 6.86 mm
16:49 22.3 °C 20.4 °C 1001.9 hPa South 3.2 km/h 8 km/h 89% 6.6 mm
16:54 22.5 °C 20.6 °C 1002.3 hPa SW 8 km/h 12.9 km/h 89% 6.1 mm
16:59 22.5 °C 20.6 °C 1002.3 hPa SSW 8 km/h 17.7 km/h 89% 5.33 mm
17:04 22.4 °C 20.3 °C 1002.3 hPa SSW 8 km/h 17.7 km/h 88% 1.78 mm
17:09 22.4 °C 20.1 °C 1002.3 hPa SSW 6.4 km/h 16.1 km/h 87% 1.52 mm
17:14 22.3 °C 20.1 °C 1002.3 hPa SSW 8 km/h 16.1 km/h 87% 1.52 mm
17:19 22.3 °C 19.8 °C 1002.3 hPa SSW 8 km/h 16.1 km/h 86% 1.27 mm
17:24 22.3 °C 19.8 °C 1001.9 hPa SSE 6.4 km/h 12.9 km/h 86% 1.27 mm
17:29 22.3 °C 19.8 °C 1001.9 hPa SSW 6.4 km/h 16.1 km/h 86% 1.02 mm
17:34 22.3 °C 19.8 °C 1001.6 hPa South 3.2 km/h 16.1 km/h 86% 1.02 mm
17:39 22.3 °C 19.9 °C 1001.6 hPa SSW 4.8 km/h 14.5 km/h 86% 1.02 mm
17:44 22.4 °C 20.1 °C 1001.6 hPa SSW 9.7 km/h 11.3 km/h 87% 0.76 mm
17:49 22.4 °C 20.2 °C 1001.9 hPa SW 6.4 km/h 11.3 km/h 87% 0.76 mm
17:54 22.6 °C 20.1 °C 1001.9 hPa SW 6.4 km/h 14.5 km/h 86% 0.76 mm
17:59 22.7 °C 20.3 °C 1001.6 hPa SSW 8 km/h 19.3 km/h 86% 0.76 mm
18:04 23 °C 20.7 °C 1001.6 hPa SSW 8 km/h 19.3 km/h 87% 0.76 mm
18:09 23.6 °C 21.4 °C 1001.9 hPa SSW 6.4 km/h 16.1 km/h 88% 0.51 mm
18:15 23.5 °C 20.8 °C 1001.9 hPa SSW 8 km/h 16.1 km/h 85% 0.51 mm
18:20 23.6 °C 20.9 °C 1001.9 hPa South 9.7 km/h 16.1 km/h 85% 0.51 mm
18:25 23.7 °C 20.8 °C 1001.9 hPa SSW 6.4 km/h 17.7 km/h 84% 0.25 mm
18:29 23.7 °C 20.6 °C 1001.9 hPa SSE 6.4 km/h 14.5 km/h 83% 0.25 mm
18:34 23.7 °C 20.7 °C 1001.9 hPa South 6.4 km/h 20.9 km/h 83% 0 mm
18:39 23.8 °C 20.7 °C 1001.9 hPa South 4.8 km/h 17.7 km/h 83% 0 mm
18:44 23.8 °C 20.7 °C 1001.6 hPa SSW 11.3 km/h 16.1 km/h 83% 0 mm
18:49 23.8 °C 20.8 °C 1001.6 hPa SSW 3.2 km/h 16.1 km/h 83% 0 mm
18:54 23.9 °C 20.8 °C 1001.6 hPa SSE 4.8 km/h 17.7 km/h 83% 0 mm
18:59 24.1 °C 20.8 °C 1001.6 hPa South 6.4 km/h 17.7 km/h 82% 0 mm
19:04 24.3 °C 21 °C 1001.6 hPa South 6.4 km/h 16.1 km/h 82% 0 mm
19:09 24.5 °C 21 °C 1001.6 hPa South 6.4 km/h 14.5 km/h 81% 0 mm
19:15 24.4 °C 20.8 °C 1001.6 hPa South 8 km/h 20.9 km/h 80% 0 mm
19:19 24.3 °C 20.4 °C 1001.6 hPa SSW 1.6 km/h 19.3 km/h 79% 0 mm
19:24 24.2 °C 20.6 °C 1001.9 hPa South 8 km/h 16.1 km/h 80% 0 mm
19:29 24.1 °C 20.2 °C 1001.9 hPa SSW 8 km/h 24.1 km/h 79% 0 mm
19:34 24 °C 20.3 °C 1001.9 hPa SSW 9.7 km/h 14.5 km/h 80% 0 mm
19:39 23.9 °C 20.2 °C 1001.6 hPa SSW 6.4 km/h 17.7 km/h 80% 0 mm
19:44 23.7 °C 20.1 °C 1001.9 hPa South 6.4 km/h 19.3 km/h 80% 0 mm
19:49 23.6 °C 20.1 °C 1001.9 hPa South 11.3 km/h 24.1 km/h 81% 0 mm
19:54 23.4 °C 20 °C 1001.9 hPa SSE 4.8 km/h 19.3 km/h 81% 0 mm
19:59 23.2 °C 20 °C 1002.3 hPa SSW 9.7 km/h 24.1 km/h 82% 0.25 mm
20:04 23 °C 19.9 °C 1002.3 hPa SSW 9.7 km/h 24.1 km/h 83% 0.25 mm
20:09 22.8 °C 19.8 °C 1002.3 hPa SSW 9.7 km/h 24.1 km/h 83% 0.25 mm
20:14 22.7 °C 19.8 °C 1002.3 hPa SW 8 km/h 17.7 km/h 84% 0.51 mm
20:19 22.6 °C 19.9 °C 1002.6 hPa South 11.3 km/h 20.9 km/h 85% 0.51 mm
20:24 22.4 °C 20 °C 1002.9 hPa SSW 11.3 km/h 17.7 km/h 86% 0.76 mm
20:29 22.3 °C 19.8 °C 1002.6 hPa SSW 9.7 km/h 17.7 km/h 86% 1.27 mm
20:34 22.2 °C 19.9 °C 1002.9 hPa SSW 9.7 km/h 20.9 km/h 87% 1.52 mm
20:39 22.1 °C 20.1 °C 1002.6 hPa SW 9.7 km/h 22.5 km/h 88% 2.03 mm
20:44 22 °C 19.9 °C 1002.6 hPa WSW 6.4 km/h 12.9 km/h 88% 2.54 mm
20:49 21.9 °C 19.9 °C 1002.6 hPa SSW 6.4 km/h 16.1 km/h 88% 3.05 mm
20:54 21.9 °C 20 °C 1002.6 hPa WSW 12.9 km/h 17.7 km/h 89% 3.81 mm
20:59 21.9 °C 20 °C 1002.6 hPa SSW 8 km/h 20.9 km/h 89% 4.06 mm
21:04 21.8 °C 19.9 °C 1002.6 hPa SSW 9.7 km/h 20.9 km/h 89% 4.57 mm
21:09 21.8 °C 20.1 °C 1002.9 hPa SW 4.8 km/h 16.1 km/h 90% 5.33 mm
21:14 21.7 °C 20 °C 1002.6 hPa SW 11.3 km/h 24.1 km/h 90% 5.33 mm
21:19 21.7 °C 19.9 °C 1002.6 hPa SW 6.4 km/h 14.5 km/h 90% 5.33 mm
21:24 21.7 °C 19.9 °C 1002.6 hPa SSW 8 km/h 17.7 km/h 90% 5.59 mm
21:29 21.6 °C 19.9 °C 1002.6 hPa SSW 8 km/h 20.9 km/h 90% 5.08 mm
21:34 21.6 °C 19.9 °C 1002.9 hPa SSW 9.7 km/h 20.9 km/h 90% 5.08 mm
21:39 21.5 °C 19.8 °C 1002.9 hPa SSW 9.7 km/h 19.3 km/h 90% 4.32 mm
21:44 21.4 °C 19.7 °C 1002.9 hPa SSW 8 km/h 16.1 km/h 90% 3.81 mm
21:50 21.4 °C 19.7 °C 1003.3 hPa SSW 8 km/h 17.7 km/h 90% 3.3 mm
21:54 21.3 °C 19.6 °C 1003.3 hPa SSW 6.4 km/h 20.9 km/h 90% 2.79 mm
21:59 21.2 °C 19.5 °C 1003.6 hPa West 4.8 km/h 12.9 km/h 90% 2.29 mm
22:04 21.2 °C 19.5 °C 1003.3 hPa South 4.8 km/h 19.3 km/h 90% 1.78 mm
22:09 21.3 °C 19.6 °C 1003.3 hPa South 1.6 km/h 12.9 km/h 90% 1.02 mm
22:14 21.3 °C 19.6 °C 1003.3 hPa SW 14.5 km/h 14.5 km/h 90% 0.76 mm
22:19 21.3 °C 19.6 °C 1003.6 hPa SSW 6.4 km/h 17.7 km/h 90% 0.51 mm
22:24 21.2 °C 19.4 °C 1003.6 hPa SSW 8 km/h 17.7 km/h 90% 0.25 mm
22:29 21.2 °C 19.3 °C 1003.3 hPa SSW 6.4 km/h 16.1 km/h 89% 0.25 mm
22:34 21.1 °C 19.2 °C 1003.6 hPa SW 4.8 km/h 14.5 km/h 89% 0 mm
22:39 21.1 °C 19.2 °C 1003.6 hPa SW 4.8 km/h 14.5 km/h 89% 0 mm
22:44 21.1 °C 19.2 °C 1003.6 hPa WSW 4.8 km/h 8 km/h 89% 0 mm
22:49 21.1 °C 19.2 °C 1003.6 hPa WSW 6.4 km/h 8 km/h 89% 0 mm
22:54 21.1 °C 19.2 °C 1003.9 hPa SW 3.2 km/h 8 km/h 89% 0 mm
22:59 21.1 °C 19.2 °C 1003.9 hPa SW 3.2 km/h 8 km/h 89% 0 mm
23:04 21.1 °C 19.2 °C 1003.9 hPa SW 3.2 km/h 11.3 km/h 89% 0 mm
23:09 21.1 °C 19.2 °C 1003.9 hPa SW 3.2 km/h 11.3 km/h 89% 0 mm
23:14 21.1 °C 19.1 °C 1003.9 hPa SW 3.2 km/h 8 km/h 88% 0 mm
23:19 21.2 °C 19.1 °C 1003.9 hPa SW 4.8 km/h 8 km/h 88% 0 mm
23:24 21.2 °C 19.1 °C 1003.9 hPa SSW 3.2 km/h 9.7 km/h 88% 0 mm
23:29 21.2 °C 19.2 °C 1003.9 hPa SW 3.2 km/h 9.7 km/h 88% 0 mm
23:34 21.2 °C 19.1 °C 1003.9 hPa Calm   9.7 km/h 88% 0 mm
23:39 21.2 °C 18.9 °C 1003.9 hPa SSW 4.8 km/h 6.4 km/h 87% 0 mm
23:44 21.2 °C 18.9 °C 1003.9 hPa SSW 1.6 km/h 11.3 km/h 87% 0 mm
23:49 21.2 °C 18.9 °C 1003.9 hPa Calm   8 km/h 87% 0 mm
23:54 21.3 °C 19 °C 1004.3 hPa West 8 km/h 8 km/h 87% 0 mm
23:59 21.3 °C 19 °C 1003.9 hPa West 4.8 km/h 9.7 km/h 87% 0 mm
Buffalo, New York, USA
Compliments of Weather Underground - 2.5 mb